When you browse on this site, cookies collect data to enhance your experience and personalize the content and advertising you see.
Visit our Privacy Policy to learn more. By continuing to use the site, you agree to this use of cookies and data.
  • In Romania
  • List of Countries
  • For 7 days
  • Water Temperature
  • Satellite Maps
  • Weather Map
  • Weather Widgets
  • user-avatar
    Login

    Hourly Weather Samos

    Today, 25 May, Saturday

    Time Temperature Precipitation Wind Pressure Humidity
    00:00 +17°C° 0 mm 3 mps 718 mmHg 81%
    01:00 +16°C° 0 mm 2 mps 718 mmHg 82%
    02:00 +16°C° 0 mm 2 mps 718 mmHg 84%
    03:00 +16°C° 0 mm 2 mps 718 mmHg 85%
    04:00 +16°C° 0 mm 1 mps 719 mmHg 86%
    05:00 +15°C° 0 mm 1 mps 719 mmHg 88%
    06:00 +16°C° 0 mm 1 mps 719 mmHg 83%
    07:00 +18°C° 0 mm 1 mps 719 mmHg 79%
    08:00 +20°C° 0 mm 1 mps 719 mmHg 74%
    09:00 +19°C° 0 mm 2 mps 720 mmHg 71%
    10:00 +20°C° 0 mm 2 mps 720 mmHg 67%
    11:00 +21°C° 0 mm 2 mps 721 mmHg 64%
    12:00 +21°C° 0 mm 3 mps 721 mmHg 62%
    13:00 +21°C° 0 mm 3 mps 721 mmHg 61%
    14:00 +22°C° 0 mm 3 mps 721 mmHg 58%
    15:00 +21°C° 0 mm 3 mps 721 mmHg 59%
    16:00 +21°C° 0 mm 3 mps 721 mmHg 60%
    17:00 +21°C° 0 mm 2 mps 721 mmHg 61%
    18:00 +20°C° 0 mm 2 mps 721 mmHg 65%
    19:00 +20°C° 0 mm 1 mps 721 mmHg 69%
    20:00 +19°C° 0 mm 1 mps 721 mmHg 73%
    21:00 +19°C° 0 mm 1 mps 721 mmHg 74%
    22:00 +17°C° 0 mm 0 mps 721 mmHg 75%
    23:00 +16°C° 0 mm 0 mps 721 mmHg 75%

    Tomorrow, 26 May, Sunday

    Time Temperature Precipitation Wind Pressure Humidity
    00:00 +16°C° 0 mm 0 mps 721 mmHg 76%
    01:00 +16°C° 0 mm 0 mps 721 mmHg 76%
    02:00 +18°C° 0 mm 1 mps 721 mmHg 77%
    03:00 +16°C° 0 mm 1 mps 721 mmHg 77%
    04:00 +16°C° 0 mm 1 mps 721 mmHg 78%
    05:00 +16°C° 0 mm 2 mps 721 mmHg 79%
    06:00 +17°C° 0 mm 2 mps 721 mmHg 75%
    07:00 +18°C° 0 mm 2 mps 721 mmHg 71%
    08:00 +19°C° 0 mm 2 mps 721 mmHg 66%
    09:00 +21°C° 0 mm 2 mps 722 mmHg 61%
    10:00 +23°C° 0 mm 2 mps 722 mmHg 55%
    11:00 +24°C° 0 mm 2 mps 722 mmHg 49%
    12:00 +25°C° 0 mm 2 mps 722 mmHg 47%
    13:00 +25°C° 0 mm 3 mps 722 mmHg 45%
    14:00 +26°C° 0 mm 3 mps 722 mmHg 43%
    15:00 +25°C° 0 mm 4 mps 721 mmHg 45%
    16:00 +25°C° 0 mm 4 mps 721 mmHg 47%
    17:00 +25°C° 0 mm 5 mps 721 mmHg 49%
    18:00 +22°C° 0 mm 4 mps 721 mmHg 53%
    19:00 +21°C° 0 mm 4 mps 721 mmHg 57%
    20:00 +20°C° 0 mm 3 mps 721 mmHg 61%
    21:00 +20°C° 0 mm 3 mps 721 mmHg 61%
    22:00 +20°C° 0 mm 3 mps 721 mmHg 62%
    23:00 +19°C° 0 mm 3 mps 721 mmHg 63%

    Day after tomorrow, 27 May, Monday

    Time Temperature Precipitation Wind Pressure Humidity
    00:00 +19°C° 0 mm 3 mps 721 mmHg 64%
    01:00 +19°C° 0 mm 2 mps 720 mmHg 65%
    02:00 +18°C° 0 mm 2 mps 720 mmHg 66%
    03:00 +18°C° 0 mm 2 mps 720 mmHg 66%
    04:00 +18°C° 0 mm 2 mps 720 mmHg 66%
    05:00 +18°C° 0 mm 2 mps 719 mmHg 66%
    06:00 +19°C° 0 mm 2 mps 720 mmHg 62%
    07:00 +20°C° 0 mm 2 mps 720 mmHg 58%
    08:00 +23°C° 0 mm 2 mps 720 mmHg 53%
    09:00 +24°C° 0 mm 1 mps 720 mmHg 50%
    10:00 +24°C° 0 mm 0 mps 720 mmHg 47%
    11:00 +25°C° 0 mm 0 mps 721 mmHg 43%
    12:00 +27°C° 0 mm 1 mps 720 mmHg 43%
    13:00 +27°C° 0 mm 1 mps 720 mmHg 42%
    14:00 +27°C° 0 mm 2 mps 720 mmHg 42%
    15:00 +27°C° 0 mm 2 mps 720 mmHg 43%
    16:00 +26°C° 0 mm 2 mps 720 mmHg 44%
    17:00 +26°C° 0 mm 2 mps 720 mmHg 46%
    18:00 +24°C° 0 mm 2 mps 720 mmHg 50%
    19:00 +23°C° 0 mm 1 mps 720 mmHg 54%
    20:00 +22°C° 0 mm 1 mps 720 mmHg 58%
    21:00 +21°C° 0 mm 1 mps 720 mmHg 57%
    22:00 +21°C° 0 mm 1 mps 720 mmHg 55%
    23:00 +20°C° 0 mm 2 mps 720 mmHg 54%

    28 May, Tuesday

    Time Temperature Precipitation Wind Pressure Humidity
    00:00 +20°C° 0 mm 2 mps 719 mmHg 55%
    01:00 +20°C° 0 mm 2 mps 719 mmHg 57%
    02:00 +19°C° 0 mm 2 mps 719 mmHg 59%
    03:00 +19°C° 0 mm 2 mps 719 mmHg 60%
    04:00 +19°C° 0 mm 2 mps 719 mmHg 60%
    05:00 +19°C° 0 mm 2 mps 718 mmHg 61%
    06:00 +20°C° 0 mm 2 mps 719 mmHg 58%
    07:00 +21°C° 0 mm 2 mps 719 mmHg 55%
    08:00 +24°C° 0 mm 1 mps 719 mmHg 52%
    09:00 +24°C° 0 mm 2 mps 719 mmHg 50%
    10:00 +25°C° 0 mm 3 mps 719 mmHg 47%
    11:00 +26°C° 0 mm 3 mps 720 mmHg 44%
    12:00 +26°C° 0 mm 4 mps 719 mmHg 44%
    13:00 +26°C° 0 mm 4 mps 719 mmHg 44%
    14:00 +26°C° 0 mm 5 mps 719 mmHg 44%
    15:00 +25°C° 0 mm 5 mps 719 mmHg 48%
    16:00 +23°C° 0 mm 4 mps 719 mmHg 52%
    17:00 +23°C° 0 mm 4 mps 719 mmHg 56%
    18:00 +22°C° 0 mm 4 mps 719 mmHg 60%
    19:00 +21°C° 0 mm 4 mps 719 mmHg 64%
    20:00 +20°C° 0 mm 4 mps 719 mmHg 68%
    21:00 +20°C° 0 mm 4 mps 719 mmHg 71%
    22:00 +19°C° 0 mm 4 mps 719 mmHg 75%
    23:00 +19°C° 0 mm 4 mps 719 mmHg 78%

    29 May, Wednesday

    Time Temperature Precipitation Wind Pressure Humidity
    00:00 +18°C° 0 mm 4 mps 719 mmHg 80%
    01:00 +18°C° 0 mm 4 mps 719 mmHg 81%
    02:00 +18°C° 0 mm 4 mps 719 mmHg 83%
    03:00 +18°C° 0 mm 4 mps 719 mmHg 84%
    04:00 +17°C° 0 mm 4 mps 719 mmHg 86%
    05:00 +17°C° 0 mm 4 mps 719 mmHg 87%
    06:00 +18°C° 0 mm 3 mps 719 mmHg 83%
    07:00 +19°C° 0 mm 3 mps 719 mmHg 80%
    08:00 +20°C° 0 mm 3 mps 720 mmHg 76%
    09:00 +20°C° 0 mm 3 mps 720 mmHg 73%
    10:00 +21°C° 0 mm 3 mps 720 mmHg 70%
    11:00 +22°C° 0 mm 3 mps 720 mmHg 67%
    12:00 +22°C° 0 mm 3 mps 720 mmHg 66%
    13:00 +22°C° 0 mm 3 mps 720 mmHg 66%
    14:00 +22°C° 0 mm 3 mps 720 mmHg 66%
    15:00 +22°C° 0 mm 3 mps 720 mmHg 67%
    16:00 +23°C° 0 mm 2 mps 720 mmHg 68%
    17:00 +21°C° 0 mm 2 mps 720 mmHg 69%
    18:00 +20°C° 0 mm 2 mps 720 mmHg 74%
    19:00 +19°C° 0 mm 2 mps 720 mmHg 79%
    20:00 +19°C° 0 mm 1 mps 720 mmHg 84%
    21:00 +19°C° 0 mm 1 mps 720 mmHg 85%
    22:00 +19°C° 0 mm 1 mps 720 mmHg 87%
    23:00 +18°C° 0 mm 1 mps 720 mmHg 89%

    30 May, Thursday

    Time Temperature Precipitation Wind Pressure Humidity
    00:00 +18°C° 0 mm 1 mps 720 mmHg 89%
    01:00 +16°C° 0 mm 0 mps 720 mmHg 90%
    02:00 +16°C° 0 mm 0 mps 719 mmHg 90%
    03:00 +18°C° 0 mm 1 mps 719 mmHg 90%
    04:00 +16°C° 0 mm 1 mps 719 mmHg 91%
    05:00 +16°C° 0 mm 1 mps 719 mmHg 91%
    06:00 +19°C° 0 mm 1 mps 719 mmHg 83%
    07:00 +20°C° 0 mm 1 mps 720 mmHg 76%
    08:00 +21°C° 0 mm 1 mps 720 mmHg 68%
    09:00 +22°C° 0 mm 1 mps 720 mmHg 63%
    10:00 +23°C° 0 mm 2 mps 720 mmHg 58%
    11:00 +25°C° 0 mm 2 mps 720 mmHg 52%
    12:00 +25°C° 0 mm 3 mps 720 mmHg 53%
    13:00 +25°C° 0 mm 4 mps 720 mmHg 53%
    14:00 +26°C° 0 mm 5 mps 720 mmHg 53%
    15:00 +25°C° 0 mm 5 mps 720 mmHg 57%
    16:00 +23°C° 0 mm 5 mps 720 mmHg 60%
    17:00 +23°C° 0 mm 4 mps 720 mmHg 64%
    18:00 +22°C° 0 mm 4 mps 720 mmHg 68%
    19:00 +21°C° 0 mm 3 mps 720 mmHg 71%
    20:00 +20°C° 0 mm 3 mps 720 mmHg 75%
    21:00 +20°C° 0 mm 3 mps 720 mmHg 75%
    22:00 +19°C° 0 mm 3 mps 720 mmHg 74%
    23:00 +19°C° 0 mm 3 mps 720 mmHg 74%
    Show more